Date String (YYYY-MM-DD hh:mm:ss) UTC,Instrument flags,Ambient pressure (hPa),Sample flow (lpm),Bypass flow (lpm),Sample temperature (°C),Ambient temperature (°C),ASC tube jacket temperature (°C),LED temperature (°C),Box temperature (°C),Sample RH (%),Span deviation,Mass concentration (μg/m³),Mass concentration (μg/m³),Mass concentration (μg/m³)
DateTimeUTC,F1_M11,P_M11,Q1_M11,Q2_M11,T1_M11,T2_M11,T3_M11,T4_M11,T5_M11,U1_M11,ZSPAN_M11,X0_M11,X2_M11,X1_M11
2022-10-23 22:00:00,,0805.7,4.99,0.00,29.7,28.1,00.0,38.6,31.4,07.0,0000.0,0005.52,0001.57,0000.45
2022-10-23 22:01:00,,0805.8,4.99,0.00,29.7,28.0,00.0,38.6,31.4,07.0,0000.0,0005.46,0001.63,0000.46
2022-10-23 22:02:00,,0805.9,5.00,0.00,29.7,28.0,00.0,38.6,31.4,07.0,0000.0,0005.53,0001.66,0000.47
2022-10-23 22:03:00,,0805.8,5.01,0.00,29.7,28.1,00.0,38.6,31.5,07.0,0000.0,0006.26,0001.66,0000.46
2022-10-23 22:04:00,,0805.8,5.00,0.00,29.7,28.1,00.0,38.6,31.5,07.1,0000.0,0006.08,0001.59,0000.47
2022-10-23 22:05:00,,0805.8,4.99,0.00,29.7,28.1,00.0,38.6,31.5,07.0,0000.0,0005.86,0001.55,0000.48
2022-10-23 22:06:00,,0806.0,5.02,0.00,29.7,28.1,00.0,38.6,31.4,06.8,0000.0,0005.82,0001.52,0000.48
2022-10-23 22:07:00,,0806.1,4.99,0.00,29.7,28.1,00.0,38.6,31.4,06.9,0000.0,0006.07,0001.48,0000.49
2022-10-23 22:08:00,,0806.1,4.99,0.00,29.7,28.1,00.0,38.6,31.5,06.9,0000.0,0006.02,0001.45,0000.48
2022-10-23 22:09:00,,0806.1,5.01,0.00,29.7,28.1,00.0,38.6,31.5,06.8,0000.0,0006.10,0001.48,0000.48
2022-10-23 22:10:00,,0806.1,5.00,0.00,29.7,28.1,00.0,38.6,31.4,06.8,0000.0,0006.92,0001.60,0000.48
2022-10-23 22:11:00,,0806.1,5.00,0.00,29.7,28.0,00.0,38.6,31.4,06.6,0000.0,0006.47,0001.64,0000.49
2022-10-23 22:12:00,,0806.1,5.00,0.00,29.7,28.0,00.0,38.6,31.4,06.6,0000.0,0006.23,0001.60,0000.49
2022-10-23 22:13:00,,0806.2,5.02,0.00,29.7,28.0,00.0,38.6,31.3,06.6,0000.0,0006.19,0001.58,0000.48
2022-10-23 22:14:00,,0806.2,4.99,0.00,29.7,28.0,00.0,38.6,31.4,06.7,0000.0,0006.38,0001.62,0000.50
2022-10-23 22:15:00,,0806.2,4.99,0.00,29.7,28.0,00.0,38.6,31.4,06.7,0000.0,0007.53,0001.69,0000.49
2022-10-23 22:16:00,,0806.2,4.99,0.00,29.7,28.0,00.0,38.6,31.4,06.6,0000.0,0007.51,0001.68,0000.49
2022-10-23 22:17:00,,0806.2,5.03,0.00,29.6,28.0,00.0,38.6,31.4,06.6,0000.0,0007.93,0001.67,0000.49
2022-10-23 22:18:00,,0806.2,4.99,0.00,29.6,27.9,00.0,38.6,31.3,06.7,0000.0,0007.76,0001.68,0000.50
2022-10-23 22:19:00,,0806.3,5.00,0.00,29.6,28.0,00.0,38.6,31.4,06.8,0000.0,0007.89,0001.73,0000.50
2022-10-23 22:20:00,,0806.3,4.99,0.00,29.6,28.0,00.0,38.6,31.4,06.9,0000.0,0008.51,0001.73,0000.52
2022-10-23 22:21:00,,0806.2,5.02,0.00,29.6,28.0,00.0,38.6,31.4,06.9,0000.0,0008.35,0001.73,0000.53
2022-10-23 22:22:00,,0806.3,4.99,0.00,29.6,28.0,00.0,38.6,31.3,06.9,0000.0,0008.18,0001.65,0000.53
2022-10-23 22:23:00,,0806.3,4.99,0.00,29.6,28.0,00.0,38.5,31.3,07.0,0000.0,0008.51,0001.60,0000.53
2022-10-23 22:24:00,,0806.3,5.01,0.00,29.6,28.0,00.0,38.5,31.3,06.8,0000.0,0008.64,0001.58,0000.53
2022-10-23 22:25:00,,0806.4,5.00,0.00,29.6,28.0,00.0,38.5,31.3,06.7,0000.0,0008.63,0001.56,0000.52
2022-10-23 22:26:00,,0806.4,4.99,0.00,29.6,28.0,00.0,38.5,31.4,06.6,0000.0,0008.32,0001.48,0000.52
2022-10-23 22:27:00,,0806.4,5.02,0.00,29.6,27.9,00.0,38.5,31.4,06.4,0000.0,0008.60,0001.53,0000.52
2022-10-23 22:28:00,,0806.4,4.99,0.00,29.6,27.9,00.0,38.5,31.3,06.5,0000.0,0008.11,0001.58,0000.53
2022-10-23 22:29:00,,0806.4,5.00,0.00,29.6,27.9,00.0,38.5,31.3,06.6,0000.0,0008.04,0001.57,0000.52
2022-10-23 22:30:00,,0806.4,5.02,0.00,29.6,27.9,00.0,38.5,31.2,06.6,0000.0,0007.94,0001.52,0000.52
2022-10-23 22:31:00,,0806.4,4.99,0.00,29.5,27.9,00.0,38.5,31.3,06.5,0000.0,0007.52,0001.55,0000.53
2022-10-23 22:32:00,,0806.4,4.99,0.00,29.5,27.9,00.0,38.5,31.3,06.5,0000.0,0007.04,0001.47,0000.52
2022-10-23 22:33:00,,0806.5,5.01,0.00,29.5,27.9,00.0,38.5,31.3,06.5,0000.0,0007.18,0001.52,0000.53
2022-10-23 22:34:00,,0806.6,5.00,0.00,29.5,27.9,00.0,38.5,31.3,06.6,0000.0,0007.52,0001.60,0000.53
2022-10-23 22:35:00,,0806.6,4.99,0.00,29.5,27.9,00.0,38.5,31.3,06.6,0000.0,0007.42,0001.63,0000.53
2022-10-23 22:36:00,,0806.6,5.00,0.00,29.5,27.9,00.0,38.5,31.3,06.6,0000.0,0006.87,0001.61,0000.54
2022-10-23 22:37:00,,0806.6,5.02,0.00,29.5,27.9,00.0,38.5,31.2,06.6,0000.0,0005.82,0001.68,0000.54
2022-10-23 22:38:00,,0806.6,5.00,0.00,29.5,27.9,00.0,38.5,31.2,06.7,0000.0,0005.06,0001.63,0000.54
2022-10-23 22:39:00,,0806.7,4.99,0.00,29.5,27.8,00.0,38.5,31.2,06.8,0000.0,0004.91,0001.58,0000.54
2022-10-23 22:40:00,,0806.7,4.99,0.00,29.5,27.8,00.0,38.4,31.2,06.8,0000.0,0004.99,0001.59,0000.55
2022-10-23 22:41:00,,0806.6,5.02,0.00,29.5,27.9,00.0,38.4,31.2,06.9,0000.0,0005.04,0001.66,0000.55
2022-10-23 22:42:00,,0806.8,5.00,0.00,29.5,27.9,00.0,38.4,31.3,06.9,0000.0,0004.84,0001.61,0000.54
2022-10-23 22:43:00,,0806.8,5.00,0.00,29.5,27.9,00.0,38.4,31.3,07.0,0000.0,0004.88,0001.61,0000.55
2022-10-23 22:44:00,,0806.8,4.99,0.00,29.5,27.9,00.0,38.4,31.3,07.0,0000.0,0005.07,0001.65,0000.56
2022-10-23 22:45:00,,0806.9,5.00,0.00,29.6,27.9,00.0,38.4,31.4,07.1,0000.0,0004.06,0001.63,0000.56
2022-10-23 22:46:00,,0806.9,5.02,0.00,29.6,28.0,00.0,38.5,31.4,07.2,0000.0,0004.87,0001.63,0000.56
2022-10-23 22:47:00,,0806.9,4.99,0.00,29.6,28.0,00.0,38.5,31.4,07.4,0000.0,0005.66,0001.66,0000.57
2022-10-23 22:48:00,,0807.0,5.00,0.00,29.6,28.0,00.0,38.4,31.4,07.4,0000.0,0005.99,0001.64,0000.57
2022-10-23 22:49:00,,0807.1,4.99,0.00,29.6,28.0,00.0,38.5,31.4,07.5,0000.0,0007.91,0001.67,0000.56
2022-10-23 22:50:00,,0807.2,5.00,0.00,29.6,28.0,00.0,38.5,31.3,07.4,0000.0,0009.04,0001.71,0000.57
2022-10-23 22:51:00,,0807.1,5.00,0.00,29.6,28.0,00.0,38.5,31.3,07.4,0000.0,0009.08,0001.70,0000.58
2022-10-23 22:52:00,,0807.2,5.00,0.00,29.6,28.0,00.0,38.5,31.4,07.2,0000.0,0009.13,0001.67,0000.57
2022-10-23 22:53:00,,0807.2,5.02,0.00,29.6,28.0,00.0,38.5,31.4,07.2,0000.0,0009.54,0001.72,0000.58
2022-10-23 22:54:00,,0807.3,5.00,0.00,29.6,28.0,00.0,38.5,31.4,07.3,0000.0,0009.80,0001.70,0000.57
2022-10-23 22:55:00,,0807.4,5.00,0.00,29.6,28.0,00.0,38.5,31.4,07.3,0000.0,0011.28,0001.67,0000.57
2022-10-23 22:56:00,,0807.5,4.99,0.00,29.6,28.0,00.0,38.5,31.4,07.3,0000.0,0011.80,0001.69,0000.57
2022-10-23 22:57:00,,0807.5,4.99,0.00,29.6,28.0,00.0,38.5,31.4,07.4,0000.0,0011.75,0001.68,0000.57
2022-10-23 22:58:00,,0807.6,5.02,0.00,29.6,28.0,00.0,38.5,31.4,07.4,0000.0,0011.29,0001.70,0000.57
2022-10-23 22:59:00,,0807.7,5.00,0.00,29.6,28.0,00.0,38.5,31.4,07.4,0000.0,0011.35,0001.74,0000.58
